Hourly Data Report for July 09, 2021

MANIWAKI AIRPORT
QUEBEC
Current Station Operator: ECCC - MSC

46°16'29.000" N
75°59'31.000" W
199.70 m
7034482
71721
WMJ

Download Data

Hourly Data (July 2021)
Hourly Data Report for July 9, 2021
TIME
LST
Temp Definition
°C
Dew Point Definition
°C
Rel Hum Definition
%
Precip. Amount Definition
mm

Wind Dir Definition
10's deg

Wind Spd Definition
km/h
Visibility Definition
km
Stn Press Definition
kPa
Hmdx Definition


Wind Chill Definition


Weather Definition


00:00 12.8 12.4 97 0.0 34 7   98.74     LegendNANA
01:00 12.9 12.4 97 0.0 32 7   98.75     LegendNANA
02:00 12.8 12.3 97 0.0 32 7   98.77     LegendNANA
03:00 12.7 12.2 97 0.0 32 6   98.80     LegendNANA
04:00 12.6 12.1 96 0.0 33 7   98.82     LegendNANA
05:00 12.8 12.1 95 0.0 35 9   98.88     LegendNANA
06:00 12.9 12.0 94 0.0 35 10   98.92     LegendNANA
07:00 13.6 12.2 91 0.0 36 10   98.97     LegendNANA
08:00 14.8 12.7 87 0.0 3 10   99.01     LegendNANA
09:00 15.5 12.0 80 0.0 2 11   99.03     LegendNANA
10:00 16.5 12.3 76 0.0 1 11   99.05     LegendNANA
11:00 17.5 12.3 72 0.0 1 11   99.05     LegendNANA
12:00 18.1 12.5 70 0.0 34 12   99.04     LegendNANA
13:00 19.3 13.3 68 0.0 1 16   99.00     LegendNANA
14:00 19.2 12.2 64 0.0 1 12   99.00     LegendNANA
15:00 19.6 11.8 61 0.0 1 8   99.00     LegendNANA
16:00 21.1 12.2 57 0.0 35 7   98.97     LegendNANA
17:00 21.6 12.2 55 0.0 3 9   98.98     LegendNANA
18:00 20.9 10.7 52 0.0 1 12   98.98     LegendNANA
19:00 18.7 12.7 68 0.0 32 3   99.04     LegendNANA
20:00 14.7 13.3 92 0.0 27 1   99.07     LegendNANA
21:00 13.4 12.7 95 0.0   0   99.11     LegendNANA
22:00 13.1 12.6 96 0.0 22 4   99.15     LegendNANA
23:00 11.9 11.4 96 0.0   0   99.19     LegendNANA

Notes on Data Quality.

Legend

  • E = Estimated
  • M = Missing
  • NA = Not Available*
  • [empty] = Indicates an unobserved value
Date modified: